Date String (YYYY-MM-DD hh:mm:ss) UTC,Instrument flags,Ambient pressure (hPa),Sample flow (lpm),Bypass flow (lpm),Sample temperature (°C),Ambient temperature (°C),ASC tube jacket temperature (°C),LED temperature (°C),Box temperature (°C),Sample RH (%),Span deviation,Mass concentration (μg/m³),Mass concentration (μg/m³),Mass concentration (μg/m³)
DateTimeUTC,F1_M11,P_M11,Q1_M11,Q2_M11,T1_M11,T2_M11,T3_M11,T4_M11,T5_M11,U1_M11,ZSPAN_M11,X0_M11,X2_M11,X1_M11
2022-09-18 05:00:00,,0822.9,5.00,0.00,30.3,27.0,00.0,38.9,31.9,22.2,0000.0,0012.56,0005.26,0004.41
2022-09-18 05:01:00,,0823.0,5.01,0.00,30.2,27.4,00.0,38.9,31.8,22.1,0000.0,0013.12,0005.33,0004.43
2022-09-18 05:02:00,,0822.9,5.01,0.00,30.1,27.7,00.0,38.9,31.8,22.1,0000.0,0013.72,0005.39,0004.43
2022-09-18 05:03:00,,0822.9,5.00,0.00,30.1,27.9,00.0,38.9,31.9,22.2,0000.0,0013.73,0005.42,0004.44
2022-09-18 05:04:00,,0822.9,5.00,0.00,30.1,28.1,00.0,38.9,31.9,22.0,0000.0,0014.07,0005.50,0004.44
2022-09-18 05:05:00,,0823.0,4.99,0.00,30.1,28.3,00.0,38.9,31.9,21.8,0000.0,0014.17,0005.53,0004.45
2022-09-18 05:06:00,,0823.1,5.01,0.00,30.1,28.5,00.0,38.9,31.9,21.6,0000.0,0013.49,0005.49,0004.42
2022-09-18 05:07:00,,0823.1,4.99,0.00,30.1,28.5,00.0,38.9,31.9,21.8,0000.0,0013.29,0005.46,0004.41
2022-09-18 05:08:00,,0823.1,5.01,0.00,30.1,28.6,00.0,38.9,31.9,21.8,0000.0,0013.25,0005.41,0004.40
2022-09-18 05:09:00,,0823.1,4.99,0.00,30.1,28.7,00.0,38.9,32.0,21.9,0000.0,0013.42,0005.38,0004.39
2022-09-18 05:10:00,,0823.2,5.01,0.00,30.1,28.8,00.0,38.9,32.0,22.0,0000.0,0012.38,0005.29,0004.40
2022-09-18 05:11:00,,0823.2,4.99,0.00,30.2,28.8,00.0,38.9,32.0,22.3,0000.0,0011.53,0005.26,0004.40
2022-09-18 05:12:00,,0823.2,5.01,0.00,30.2,28.9,00.0,38.9,32.0,22.6,0000.0,0011.14,0005.26,0004.41
2022-09-18 05:13:00,,0823.2,4.99,0.00,30.2,28.9,00.0,38.9,32.1,22.7,0000.0,0011.47,0005.28,0004.42
2022-09-18 05:14:00,,0823.1,5.01,0.00,30.2,28.9,00.0,38.9,32.1,22.7,0000.0,0011.85,0005.30,0004.43
2022-09-18 05:15:00,,0823.1,4.99,0.00,30.2,29.0,00.0,38.9,32.1,22.6,0000.0,0011.79,0005.30,0004.44
2022-09-18 05:16:00,,0823.1,5.02,0.00,30.3,29.0,00.0,39.0,32.1,22.5,0000.0,0011.67,0005.31,0004.44
2022-09-18 05:17:00,,0823.1,4.99,0.00,30.3,29.1,00.0,39.0,32.1,22.4,0000.0,0012.65,0005.33,0004.45
2022-09-18 05:18:00,,0823.1,5.01,0.00,30.3,29.1,00.0,39.0,32.2,22.4,0000.0,0013.28,0005.37,0004.46
2022-09-18 05:19:00,,0823.1,4.99,0.00,30.3,29.1,00.0,39.0,32.2,22.4,0000.0,0013.52,0005.47,0004.49
2022-09-18 05:20:00,,0823.1,5.01,0.00,30.4,29.2,00.0,39.0,32.2,22.4,0000.0,0013.28,0005.49,0004.50
2022-09-18 05:21:00,,0823.2,4.98,0.00,30.4,29.2,00.0,39.1,32.2,22.4,0000.0,0013.35,0005.49,0004.49
2022-09-18 05:22:00,,0823.3,5.01,0.00,30.4,29.2,00.0,39.1,32.3,22.5,0000.0,0013.36,0005.49,0004.49
2022-09-18 05:23:00,,0823.3,5.00,0.00,30.4,29.2,00.0,39.1,32.3,22.7,0000.0,0013.50,0005.49,0004.50
2022-09-18 05:24:00,,0823.3,5.01,0.00,30.4,28.1,00.0,39.1,32.2,22.6,0000.0,0012.98,0005.50,0004.50
2022-09-18 05:25:00,,0823.2,5.01,0.00,30.4,26.9,00.0,39.0,32.1,22.7,0000.0,0012.88,0005.52,0004.51
2022-09-18 05:26:00,,0823.2,5.00,0.00,30.3,26.8,00.0,39.0,32.0,22.6,0000.0,0012.77,0005.53,0004.52
2022-09-18 05:27:00,,0823.1,5.00,0.00,30.2,27.0,00.0,39.0,31.8,22.6,0000.0,0012.69,0005.50,0004.52
2022-09-18 05:28:00,,0823.2,4.99,0.00,30.2,27.4,00.0,38.9,31.8,22.7,0000.0,0012.09,0005.50,0004.52
2022-09-18 05:29:00,,0823.1,5.00,0.00,30.1,27.7,00.0,38.9,31.8,22.7,0000.0,0011.49,0005.47,0004.52
2022-09-18 05:30:00,,0823.1,4.99,0.00,30.1,27.9,00.0,38.9,31.8,22.7,0000.0,0012.04,0005.40,0004.51
2022-09-18 05:31:00,,0823.1,5.02,0.00,30.1,28.1,00.0,38.9,31.8,22.7,0000.0,0011.84,0005.38,0004.50
2022-09-18 05:32:00,,0823.2,5.00,0.00,30.1,28.3,00.0,38.9,31.8,22.8,0000.0,0011.93,0005.43,0004.51
2022-09-18 05:33:00,,0823.2,4.99,0.00,30.1,28.4,00.0,38.9,31.9,22.8,0000.0,0011.85,0005.41,0004.52
2022-09-18 05:34:00,,0823.2,4.99,0.00,30.1,28.5,00.0,38.9,31.9,22.7,0000.0,0012.04,0005.40,0004.52
2022-09-18 05:35:00,,0823.2,5.00,0.00,30.1,28.6,00.0,38.9,31.9,22.6,0000.0,0012.39,0005.36,0004.52
2022-09-18 05:36:00,,0823.2,5.00,0.00,30.1,28.7,00.0,38.9,32.0,22.5,0000.0,0013.62,0005.33,0004.51
2022-09-18 05:37:00,,0823.1,5.00,0.00,30.1,28.7,00.0,38.9,32.0,22.4,0000.0,0013.59,0005.28,0004.51
2022-09-18 05:38:00,,0823.2,5.01,0.00,30.1,28.8,00.0,38.9,32.0,22.4,0000.0,0013.46,0005.22,0004.49
2022-09-18 05:39:00,,0823.2,4.99,0.00,30.2,28.8,00.0,38.9,32.0,22.3,0000.0,0013.28,0005.19,0004.47
2022-09-18 05:40:00,,0823.1,5.00,0.00,30.2,28.9,00.0,38.9,32.0,22.1,0000.0,0012.80,0005.17,0004.46
2022-09-18 05:41:00,,0823.2,4.99,0.00,30.2,28.9,00.0,38.9,32.1,22.1,0000.0,0011.75,0005.12,0004.46
2022-09-18 05:42:00,,0823.2,5.01,0.00,30.2,28.9,00.0,38.9,32.1,22.0,0000.0,0011.66,0005.14,0004.46
2022-09-18 05:43:00,,0823.1,4.99,0.00,30.2,29.0,00.0,39.0,32.1,21.8,0000.0,0012.08,0005.08,0004.47
2022-09-18 05:44:00,,0823.1,4.99,0.00,30.3,29.0,00.0,39.0,32.1,21.8,0000.0,0011.88,0005.07,0004.47
2022-09-18 05:45:00,,0823.2,5.00,0.00,30.3,29.1,00.0,39.0,32.1,21.8,0000.0,0011.53,0005.01,0004.47
2022-09-18 05:46:00,,0823.1,5.02,0.00,30.3,29.1,00.0,39.0,32.2,21.8,0000.0,0011.20,0005.02,0004.47
2022-09-18 05:47:00,,0823.1,4.99,0.00,30.3,29.1,00.0,39.0,32.2,21.7,0000.0,0009.57,0005.04,0004.48
2022-09-18 05:48:00,,0823.2,5.01,0.00,30.4,29.1,00.0,39.0,32.2,21.7,0000.0,0010.53,0005.04,0004.49
2022-09-18 05:49:00,,0823.2,5.00,0.00,30.4,29.1,00.0,39.1,32.2,21.6,0000.0,0011.24,0005.08,0004.50
2022-09-18 05:50:00,,0823.1,5.01,0.00,30.4,29.2,00.0,39.1,32.2,21.5,0000.0,0011.51,0005.11,0004.51
2022-09-18 05:51:00,,0823.1,4.99,0.00,30.4,29.2,00.0,39.1,32.2,21.5,0000.0,0011.43,0005.09,0004.53
2022-09-18 05:52:00,,0823.1,5.01,0.00,30.4,29.2,00.0,39.1,32.3,21.5,0000.0,0011.46,0005.09,0004.53
2022-09-18 05:53:00,,0823.1,4.98,0.00,30.4,29.2,00.0,39.1,32.3,21.4,0000.0,0011.30,0005.08,0004.53
2022-09-18 05:54:00,,0823.1,5.01,0.00,30.5,29.2,00.0,39.1,32.3,21.4,0000.0,0011.51,0005.09,0004.53
2022-09-18 05:55:00,,0823.1,4.99,0.00,30.5,29.2,00.0,39.2,32.3,21.5,0000.0,0012.28,0005.08,0004.53
2022-09-18 05:56:00,,0823.1,5.01,0.00,30.5,29.2,00.0,39.2,32.3,21.7,0000.0,0012.58,0005.11,0004.53
2022-09-18 05:57:00,,0823.1,5.01,0.00,30.5,28.2,00.0,39.2,32.3,21.7,0000.0,0012.19,0005.08,0004.52
2022-09-18 05:58:00,,0823.0,5.00,0.00,30.4,26.9,00.0,39.1,32.2,21.6,0000.0,0012.54,0005.07,0004.51
2022-09-18 05:59:00,,0823.0,4.99,0.00,30.4,26.7,00.0,39.1,32.1,21.6,0000.0,0012.29,0005.09,0004.51
